Content
SEND FEEDBACK

Daily
Averages
Monthly
Summary
United States of America

ARENDAL, KENTUCKY


Home > North America > United States > Kentucky
Elevation: 55 feet     Latitude: 37 55N     Longitude: 085 39W

WEATHER
 
SELECT A DAY
Number of Records: 203,263;   Date Range: 1/1/95 - 12/25/14
 
SHARE

PRINT THIS DATA

[ ← Previous Day ]
WEATHER ALMANAC - JANUARY 23, 2013
[ Next Day → ]
[ °C ]   °F
Weather ElementAverageHighLow
Temperature25.5 °F38.1 °F (3:55 pm)13.1 °F (6:55 am)
Dewpoint11.4 °F19 °F (10:55 pm)4.6 °F (2:55 am)
Humidity57.3 %80 % (6:55 am)35 % (1:55 pm)
Barometer30.27 in30.39 in (1:55 am)30.13 in (7:55 pm)
Wind Speed5.4 mph12.7 mph (10:55 pm)
Weather ElementAverage
Visibility10 mi
Wind DirectionSSE (156.1 °)

Weather ElementTotal
Precipitation---
Heating Degree Days39.4 (Base 65)
Averaged from 23 records on January 23, 2013
WEATHER CONDITIONS BREAKOUT
WIND DIRECTION BREAKOUT
WEATHER BY HOUR - JANUARY 23, 2013
[ °C ]   °F
Local TimeTemperatureDewpointHumidityBarometerVisibilityWind DirectionWind SpeedGust SpeedPrecipitationEventsConditions
1:55 AM15.4 °F6.4 °F68 %30.39 in10.0 miCalmMostly Cloudy
2:55 AM17.1 °F4.6 °F58 %30.39 in10.0 miCalmMostly Cloudy
3:55 AM14.5 °F6.1 °F69 %30.39 in10.0 miSSW (210°)3.5 mphClear
4:55 AM14.0 °F7.9 °F77 %30.39 in10.0 miCalmClear
5:55 AM14.4 °F6.1 °F70 %30.37 in10.0 miCalmClear
6:55 AM13.1 °F8.1 °F80 %30.37 in10.0 miCalmClear
7:55 AM13.5 °F8.2 °F80 %30.38 in10.0 miCalmMostly Cloudy
8:55 AM17.4 °F7.2 °F64 %30.38 in10.0 miCalmMostly Cloudy
9:55 AM22.1 °F7.5 °F54 %30.38 in10.0 miSouth (170°)5.8 mphScattered Clouds
10:55 AM25.2 °F7.3 °F47 %30.37 in10.0 miSSE (150°)4.6 mphMostly Cloudy
11:55 AM28.9 °F7.7 °F41 %30.34 in10.0 miSouth (180°)10.4 mphScattered Clouds
12:55 PM32.2 °F8.6 °F37 %30.28 in10.0 miSouth (180°)8.1 mphScattered Clouds
1:55 PM34.9 °F9.9 °F35 %30.23 in10.0 miWSW (240°)6.9 mphScattered Clouds
2:55 PM37.0 °F12.9 °F37 %30.20 in10.0 miSouth (190°)10.4 mphMostly Cloudy
3:55 PM38.1 °F14.2 °F38 %30.17 in10.0 miSSW (210°)11.5 mphScattered Clouds
4:55 PM37.9 °F16.0 °F41 %30.16 in10.0 miSSW (210°)9.2 mphPartly Cloudy
5:55 PM34.5 °F17.1 °F49 %30.14 in10.0 miSW (230°)6.9 mphClear
6:55 PM29.8 °F17.1 °F59 %30.14 in10.0 miWest (270°)4.6 mphScattered Clouds
7:55 PM27.1 °F16.9 °F65 %30.13 in10.0 miWSW (250°)5.8 mphClear
8:55 PM28.9 °F17.2 °F62 %30.13 in10.0 miWest (260°)5.8 mphMostly Cloudy
9:55 PM27.9 °F17.8 °F66 %30.16 in10.0 miWest (270°)5.8 mphMostly Cloudy
10:55 PM31.3 °F19.0 °F61 %30.16 in10.0 miWest (280°)12.7 mphClear
11:55 PM32.0 °F19.0 °F59 %30.17 in10.0 miWNW (290°)12.7 mphClear
Hourly data recorded from KFTK, located miles away from Arendal, Kentucky







STORIES FROM OUR PARTNERS